[[{"header":{"parameterUnit":"m.s-1","parameterCategory":2,"la1":30.2992,"la2":30.254,"lo1":-89.0895,"lo2":-89.0443,"dy":0.0025,"dx":0.0025,"nx":19,"ny":19,"refTime":"2026-04-10T09:00:00:Z","depth":"0","parameterNumber":2,"parameterNumberName":"U-component_of_CURRENTS"},"data":[0,0,0,-0.2507,-0.2507,-0.2495,-0.2494,-0.2429,-0.2428,0,0,0,0,0,0,0,0,0,0,0,-0.251,-0.251,-0.2507,-0.2508,-0.2495,-0.2494,-0.2429,-0.2428,0,0,0,0,0,0,0,0,0,0,0,-0.251,-0.251,-0.2511,-0.2508,-0.2495,-0.2494,-0.2429,-0.2448,0,0,0,0,0,0,0,0,0,0,-0.2466,-0.2465,-0.251,-0.2511,-0.2508,-0.2495,-0.2494,-0.2449,-0.2447,-0.2424,0,-0.243,0,-0.2432,-0.2423,-0.2423,0,0,0,-0.2496,-0.2467,-0.2481,-0.2511,-0.2508,-0.2495,-0.2497,-0.2448,-0.2445,-0.242,-0.2429,-0.2427,-0.2431,-0.2423,-0.2423,-0.2312,-0.2311,0,0,-0.2497,-0.2487,-0.2483,-0.2479,-0.2513,-0.2498,-0.2497,-0.2447,-0.2436,-0.2429,-0.2426,-0.243,-0.2423,-0.2422,-0.2313,-0.2312,0,0,0,-0.2507,-0.2487,-0.2503,-0.2481,-0.2486,-0.2498,-0.2497,-0.2438,-0.2449,-0.2425,-0.2429,-0.2422,-0.2421,-0.2313,-0.2312,-0.2236,0,0,0,-0.2507,-0.2494,-0.2503,-0.2494,-0.2487,-0.2465,-0.2489,-0.2452,-0.2447,-0.2429,-0.2422,-0.2421,-0.2314,-0.2313,-0.2239,-0.221,0,0,0,-0.2509,-0.2494,-0.25,-0.2494,-0.2496,-0.2466,-0.2473,-0.2451,-0.2449,-0.2423,-0.2421,-0.2315,-0.2313,-0.2243,-0.2216,-0.2187,0,0,0,-0.2489,-0.2474,-0.2499,-0.2491,-0.2497,-0.2477,-0.2473,-0.2465,-0.2448,-0.2422,-0.2314,-0.2312,-0.2244,-0.2219,-0.2191,-0.2023,-0.1994,0,0,-0.2456,-0.247,-0.2469,-0.2492,-0.2449,-0.2477,-0.2407,-0.2401,-0.2405,-0.2327,-0.2325,-0.2238,-0.2216,-0.2188,-0.1926,-0.19,0,0,0,-0.245,-0.2423,-0.2427,-0.2409,-0.2426,-0.237,-0.2373,-0.2348,-0.2283,-0.2388,-0.2225,-0.2214,-0.2199,-0.2104,-0.2083,-0.1999,-0.2305,-0.2305,-0.2305,-0.2322,-0.2349,-0.2302,-0.2306,-0.23,-0.2289,-0.2248,-0.2202,-0.2231,-0.2184,-0.2141,-0.2054,-0.1949,-0.1932,-0.1847,-0.2128,-0.2128,-0.2128,-0.2127,-0.2182,-0.2131,-0.217,-0.2131,-0.2133,-0.2086,-0.2061,-0.2072,-0.2002,-0.2035,-0.2025,-0.2014,-0.1905,-0.1822,-0.2122,-0.2123,-0.2124,-0.2124,-0.2125,-0.2023,-0.2003,-0.2011,-0.1972,-0.1938,-0.1962,-0.1907,-0.1924,-0.1925,-0.1909,-0.1841,-0.1841,-0.178,-0.192,-0.1919,-0.1919,-0.1919,-0.1919,-0.1918,-0.185,-0.1858,-0.1816,-0.181,-0.1806,-0.1802,-0.1822,-0.1801,-0.1757,-0.1741,-0.174,-0.171,-0.1991,-0.2013,-0.1914,-0.1915,-0.1915,-0.1916,-0.1916,-0.1621,-0.1689,-0.1609,-0.1605,-0.1615,-0.1563,-0.1637,-0.1554,-0.1555,-0.1486,-0.1417,-0.1649,-0.1664,-0.1679,-0.1692,-0.1517,-0.1517,-0.1517,-0.1517,-0.1496,-0.1514,-0.1435,-0.1408,-0.1408,-0.144,-0.1282,-0.1237,-0.1192,-0.1134,-0.1208,-0.1192,-0.1212,-0.1203,-0.1229,-0.1235,-0.0948,-0.0947,-0.0947,-0.136,-0.137,-0.1267,-0.1286,-0.1305,-0.1283,-0.1074,-0.0875,-0.0843,-0.0924,-0.1122,-0.1146,-0.1132,-0.1171,-0.1172,-0.1215,-0.1233,0,0]},{"header":{"parameterUnit":"m.s-1","parameterCategory":2,"la1":30.2992,"la2":30.254,"lo1":-89.0895,"lo2":-89.0443,"dy":0.0025,"dx":0.0025,"nx":19,"ny":19,"refTime":"2026-04-10T09:00:00:Z","depth":"0","parameterNumber":3,"parameterNumberName":"V-component_of_CURRENTS"},"data":[0,0,0,-0.0193,-0.0192,-0.0099,-0.0098,0.0052,0.0054,0,0,0,0,0,0,0,0,0,0,0,-0.0229,-0.0229,-0.0194,-0.0192,-0.0099,-0.0098,0.0052,0.0054,0,0,0,0,0,0,0,0,0,0,0,-0.0229,-0.0229,-0.0229,-0.0192,-0.0099,-0.0098,0.0052,-0.0022,0,0,0,0,0,0,0,0,0,0,-0.0115,-0.0169,-0.0229,-0.0229,-0.0191,-0.0099,-0.0098,-0.0026,-0.0018,0.0014,0,0.0014,0,0.0033,0.0063,0.0063,0,0,0,-0.0175,-0.0177,-0.0143,-0.0229,-0.0191,-0.0099,-0.0136,-0.0021,-0.0012,0.0025,0.0017,0.0022,0.0035,0.0064,0.0064,0.0123,0.0123,0,0,-0.018,-0.0214,-0.015,-0.0138,-0.0183,-0.0139,-0.0133,-0.0016,-0.0017,0.0017,0.0026,0.0038,0.0065,0.0066,0.0123,0.0123,0,0,0,-0.0206,-0.0218,-0.0187,-0.0144,-0.0132,-0.0137,-0.013,-0.0023,-0.0011,0.0028,0.004,0.0065,0.0067,0.0124,0.0123,0.0037,0,0,0,-0.0209,-0.0234,-0.019,-0.0209,-0.0135,-0.0083,-0.014,-0.0019,-0.0005,0.0039,0.0066,0.0069,0.0124,0.0123,0.004,0.0007,0,0,0,-0.0231,-0.0236,-0.0229,-0.0211,-0.0177,-0.0085,-0.0066,-0.0015,0.0002,0.0063,0.0069,0.0124,0.0124,0.0043,0.0012,0.0065,0,0,0,-0.0261,-0.0292,-0.023,-0.0257,-0.0178,-0.0145,-0.0066,-0.0027,0.0017,0.0066,0.0124,0.0123,0.0044,0.0015,0.0067,0.0202,0.0206,0,0,-0.0322,-0.03,-0.0315,-0.0258,-0.0252,-0.0156,-0.0143,-0.0048,0.0015,0.0092,0.0094,0.0039,0.0012,0.0066,0.0147,0.0153,0,0,0,-0.0349,-0.0356,-0.0345,-0.0323,-0.0271,-0.0215,-0.0122,-0.0081,-0.0014,0.0035,0.0044,0.003,0.0067,0.0152,0.0155,0.0272,0.0119,0.0119,0.0119,-0.0464,-0.0423,-0.0435,-0.0376,-0.0347,-0.0249,-0.0206,-0.0129,-0.0064,-0.0057,-0.0037,-0.0053,0.0033,0.0038,0.0154,-0.0034,-0.0035,-0.0035,-0.0035,-0.0537,-0.0532,-0.048,-0.0476,-0.0402,-0.0371,-0.027,-0.0219,-0.014,-0.0113,-0.0071,0.0059,0.0038,0.0161,-0.0041,-0.004,-0.0039,-0.0038,-0.0038,-0.0588,-0.0578,-0.0569,-0.0545,-0.0513,-0.0432,-0.0364,-0.0301,-0.0208,-0.0188,-0.0003,0.0001,0.0114,-0.0136,-0.0136,-0.0136,-0.0136,-0.0136,-0.0136,-0.0635,-0.0622,-0.0635,-0.0609,-0.0593,-0.054,-0.0414,-0.0322,-0.0153,-0.0072,-0.0069,0.0129,-0.0082,-0.0071,-0.0135,-0.0135,-0.0135,-0.0135,-0.0135,-0.0675,-0.0681,-0.0693,-0.069,-0.0641,-0.0509,-0.0428,-0.0151,-0.0057,0.0063,0.0241,0.0026,0.0089,0.0088,0.0104,0.009,0.009,0.009,0.009,-0.071,-0.0712,-0.0725,-0.0715,-0.0664,-0.0496,-0.0167,0.0083,0.0313,0.0418,0.0394,0.0437,0.0423,0.0506,0.0496,0.0521,0.0613,0.0614,0.0614,-0.0732,-0.0731,-0.0739,-0.0724,-0.0662,-0.0406,0.002,0.0449,0.0656,0.0641,0.0525,0.0502,0.0565,0.0534,0.0665,0.0642,0.0683,0,0]}],[{"header":{"parameterUnit":"m.s-1","parameterCategory":2,"la1":30.2992,"la2":30.254,"lo1":-89.0895,"lo2":-89.0443,"dy":0.0025,"dx":0.0025,"nx":19,"ny":19,"refTime":"2026-04-10T09:00:00:Z","depth":"2","parameterNumber":2,"parameterNumberName":"U-component_of_CURRENTS"},"data":[0,0,0,-0.1991,-0.1993,-0.2082,-0.2082,-0.2043,-0.2042,0,0,0,0,0,0,0,0,0,0,0,-0.1912,-0.1912,-0.199,-0.1994,-0.2082,-0.2082,-0.2043,-0.2042,0,0,0,0,0,0,0,0,0,0,0,-0.1912,-0.1912,-0.1912,-0.1994,-0.2082,-0.2082,-0.2043,-0.2008,0,0,0,0,0,0,0,0,0,0,-0.1938,-0.1932,-0.1912,-0.1912,-0.1995,-0.2082,-0.2082,-0.2007,-0.201,-0.1968,0,-0.1969,0,-0.2034,-0.2039,-0.2039,0,0,0,-0.1966,-0.193,-0.1932,-0.1912,-0.1996,-0.2082,-0.2034,-0.201,-0.2012,-0.197,-0.1969,-0.197,-0.2034,-0.2039,-0.2038,-0.1931,-0.193,0,0,-0.1961,-0.195,-0.193,-0.1933,-0.2,-0.2032,-0.2038,-0.2013,-0.2016,-0.1969,-0.1971,-0.2033,-0.2038,-0.2038,-0.1932,-0.1931,0,0,0,-0.1966,-0.1947,-0.1952,-0.1932,-0.1977,-0.2035,-0.2042,-0.2017,-0.2012,-0.1972,-0.2033,-0.2038,-0.2037,-0.1932,-0.1931,-0.1882,0,0,0,-0.1961,-0.1952,-0.1949,-0.1947,-0.1978,-0.2032,-0.2046,-0.2012,-0.2014,-0.2033,-0.2038,-0.2037,-0.1933,-0.1932,-0.1886,-0.1884,0,0,0,-0.1911,-0.1949,-0.1947,-0.1945,-0.2,-0.2034,-0.2029,-0.2014,-0.2052,-0.2039,-0.2037,-0.1934,-0.1932,-0.1888,-0.1888,-0.1861,0,0,0,-0.1912,-0.1906,-0.1946,-0.1969,-0.1999,-0.2018,-0.2031,-0.2062,-0.2053,-0.2038,-0.1933,-0.1931,-0.1889,-0.189,-0.1863,-0.1694,-0.1669,0,0,-0.1902,-0.1905,-0.1919,-0.1958,-0.1941,-0.2005,-0.1984,-0.1992,-0.2,-0.1928,-0.1927,-0.1884,-0.1888,-0.1861,-0.1587,-0.1566,0,0,0,-0.1916,-0.1895,-0.19,-0.1916,-0.1948,-0.1938,-0.1975,-0.1956,-0.191,-0.1994,-0.186,-0.1864,-0.1849,-0.1751,-0.1733,-0.1923,-0.1923,-0.1923,-0.1923,-0.1833,-0.186,-0.1843,-0.1851,-0.1864,-0.1889,-0.1871,-0.1845,-0.1858,-0.1824,-0.1806,-0.1729,-0.162,-0.1606,-0.1774,-0.1774,-0.1774,-0.1774,-0.1773,-0.1759,-0.1738,-0.1772,-0.176,-0.1766,-0.1756,-0.1745,-0.1753,-0.1699,-0.1722,-0.1709,-0.168,-0.1584,-0.1769,-0.177,-0.177,-0.1771,-0.1771,-0.1772,-0.1666,-0.1655,-0.1676,-0.1668,-0.1656,-0.1681,-0.1644,-0.1664,-0.1661,-0.165,-0.1552,-0.1551,-0.1725,-0.1643,-0.1643,-0.1642,-0.1642,-0.1642,-0.1642,-0.1558,-0.1572,-0.1549,-0.1564,-0.1566,-0.1575,-0.1598,-0.1577,-0.152,-0.1491,-0.149,-0.1686,-0.169,-0.1717,-0.164,-0.164,-0.164,-0.1641,-0.1641,-0.1403,-0.1447,-0.1402,-0.1403,-0.1419,-0.1363,-0.144,-0.1345,-0.134,-0.1265,-0.139,-0.1396,-0.1403,-0.1415,-0.1434,-0.1289,-0.1289,-0.1289,-0.1289,-0.1303,-0.1321,-0.1259,-0.1241,-0.1237,-0.1253,-0.1091,-0.1038,-0.1062,-0.1052,-0.1063,-0.1039,-0.1056,-0.1046,-0.1066,-0.108,-0.0843,-0.0842,-0.0842,-0.1193,-0.1202,-0.1118,-0.1136,-0.1142,-0.1091,-0.0885,-0.0706,-0.0681,-0.0831,-0.1058,-0.1245,-0.1237,-0.1255,-0.1265,-0.1287,-0.1321,0,0]},{"header":{"parameterUnit":"m.s-1","parameterCategory":2,"la1":30.2992,"la2":30.254,"lo1":-89.0895,"lo2":-89.0443,"dy":0.0025,"dx":0.0025,"nx":19,"ny":19,"refTime":"2026-04-10T09:00:00:Z","depth":"2","parameterNumber":3,"parameterNumberName":"V-component_of_CURRENTS"},"data":[0,0,0,-0.0422,-0.0421,-0.0323,-0.0322,-0.0188,-0.0187,0,0,0,0,0,0,0,0,0,0,0,-0.0474,-0.0474,-0.0422,-0.042,-0.0323,-0.0322,-0.0188,-0.0187,0,0,0,0,0,0,0,0,0,0,0,-0.0474,-0.0474,-0.0474,-0.042,-0.0323,-0.0322,-0.0188,-0.0262,0,0,0,0,0,0,0,0,0,0,-0.0357,-0.0401,-0.0474,-0.0474,-0.042,-0.0323,-0.0322,-0.0265,-0.0257,-0.0232,0,-0.0238,0,-0.0205,-0.0178,-0.0178,0,0,0,-0.041,-0.0408,-0.0389,-0.0474,-0.0419,-0.0323,-0.0364,-0.0261,-0.0251,-0.0222,-0.0236,-0.023,-0.0203,-0.0178,-0.0177,-0.0087,-0.0087,0,0,-0.0415,-0.0441,-0.0396,-0.0384,-0.0419,-0.0367,-0.0361,-0.0255,-0.0252,-0.0235,-0.0226,-0.0201,-0.0177,-0.0176,-0.0087,-0.0087,0,0,0,-0.0438,-0.0445,-0.0428,-0.0391,-0.0371,-0.0364,-0.0357,-0.0256,-0.0254,-0.0225,-0.0199,-0.0176,-0.0174,-0.0087,-0.0087,-0.0132,0,0,0,-0.044,-0.0458,-0.0431,-0.0443,-0.0374,-0.0311,-0.0361,-0.0262,-0.0248,-0.02,-0.0176,-0.0173,-0.0087,-0.0087,-0.0131,-0.0151,0,0,0,-0.0474,-0.046,-0.046,-0.0445,-0.0406,-0.0312,-0.0302,-0.0258,-0.0233,-0.0178,-0.0173,-0.0087,-0.0087,-0.013,-0.0149,-0.0117,0,0,0,-0.0487,-0.0496,-0.0461,-0.0461,-0.0408,-0.0357,-0.0303,-0.0253,-0.0211,-0.0175,-0.0087,-0.0087,-0.013,-0.0148,-0.0116,-0.0045,-0.0042,0,0,-0.0506,-0.0499,-0.0499,-0.0465,-0.0437,-0.0369,-0.032,-0.0245,-0.0198,-0.0119,-0.0117,-0.0132,-0.0149,-0.0116,-0.0037,-0.0034,0,0,0,-0.0509,-0.051,-0.0498,-0.0472,-0.0425,-0.0365,-0.0286,-0.0246,-0.0175,-0.0173,-0.0116,-0.0125,-0.0103,-0.0059,-0.0056,-0.0086,-0.0086,-0.0086,-0.0086,-0.0561,-0.0532,-0.0522,-0.0479,-0.0444,-0.0353,-0.0305,-0.0231,-0.019,-0.0168,-0.015,-0.0142,-0.0097,-0.0093,-0.0136,-0.0136,-0.0137,-0.0137,-0.0137,-0.0586,-0.058,-0.0537,-0.0519,-0.0457,-0.041,-0.0305,-0.0265,-0.0185,-0.0169,-0.0145,-0.0096,-0.0093,-0.014,-0.0139,-0.0139,-0.0139,-0.0138,-0.0138,-0.0619,-0.061,-0.0597,-0.0566,-0.052,-0.0443,-0.0375,-0.0306,-0.0225,-0.0203,-0.011,-0.0108,-0.0159,-0.0179,-0.0179,-0.0179,-0.0179,-0.0179,-0.0179,-0.0659,-0.064,-0.0648,-0.0612,-0.0594,-0.0539,-0.0417,-0.0343,-0.0213,-0.0144,-0.0142,-0.0155,-0.0154,-0.016,-0.0178,-0.0179,-0.0179,-0.0179,-0.0179,-0.069,-0.0698,-0.0702,-0.0698,-0.0648,-0.0578,-0.0471,-0.0266,-0.0179,-0.0095,-0.0087,-0.0089,-0.0057,-0.0058,-0.006,-0.0051,-0.0051,-0.0051,-0.0051,-0.0726,-0.0726,-0.074,-0.0733,-0.0692,-0.0592,-0.0407,-0.0206,-0.0053,0.0002,-0.0001,0.0008,0.0003,0.0038,0.0035,0.0035,0.0068,0.0068,0.0068,-0.0751,-0.0749,-0.0763,-0.0752,-0.0704,-0.058,-0.0378,-0.0124,0.0055,0.0068,-0.0024,-0.0035,-0.0028,-0.0034,0.0016,0.0013,0.0011,0,0]}],[{"header":{"parameterUnit":"m.s-1","parameterCategory":2,"la1":30.2992,"la2":30.254,"lo1":-89.0895,"lo2":-89.0443,"dy":0.0025,"dx":0.0025,"nx":19,"ny":19,"refTime":"2026-04-10T09:00:00:Z","depth":"4","parameterNumber":2,"parameterNumberName":"U-component_of_CURRENTS"},"data":[0,0,0,-0.1065,-0.1066,-0.1171,-0.1172,-0.1224,-0.1224,0,0,0,0,0,0,0,0,0,0,0,-0.1028,-0.1029,-0.1064,-0.1067,-0.1171,-0.1172,-0.1224,-0.1224,0,0,0,0,0,0,0,0,0,0,0,-0.1028,-0.1029,-0.1029,-0.1067,-0.1171,-0.1172,-0.1224,-0.1169,0,0,0,0,0,0,0,0,0,0,-0.1078,-0.107,-0.1029,-0.1029,-0.1067,-0.1171,-0.1172,-0.1167,-0.1172,-0.115,0,-0.1162,0,-0.1187,-0.1225,-0.1225,0,0,0,-0.1079,-0.1066,-0.1073,-0.1029,-0.1068,-0.1171,-0.1127,-0.1171,-0.1176,-0.1156,-0.1163,-0.1165,-0.1187,-0.1225,-0.1225,-0.1207,-0.1206,0,0,-0.1073,-0.1068,-0.107,-0.1077,-0.1087,-0.1124,-0.1131,-0.1175,-0.1187,-0.1163,-0.1167,-0.1188,-0.1225,-0.1225,-0.1207,-0.1207,0,0,0,-0.1048,-0.1064,-0.1073,-0.1074,-0.1095,-0.1127,-0.1134,-0.1186,-0.1183,-0.1168,-0.1189,-0.1225,-0.1225,-0.1207,-0.1207,-0.1263,0,0,0,-0.1046,-0.1048,-0.107,-0.1071,-0.1095,-0.1157,-0.1144,-0.118,-0.1186,-0.1189,-0.1225,-0.1225,-0.1208,-0.1207,-0.1262,-0.1282,0,0,0,-0.1025,-0.1047,-0.1051,-0.1069,-0.1107,-0.1157,-0.116,-0.1183,-0.1198,-0.1225,-0.1225,-0.1208,-0.1207,-0.1261,-0.128,-0.1261,0,0,0,-0.1025,-0.1049,-0.1052,-0.1086,-0.1106,-0.1145,-0.116,-0.1202,-0.1226,-0.1225,-0.1208,-0.1207,-0.1261,-0.1279,-0.126,-0.1069,0,0,0,-0.1054,-0.1053,-0.1071,-0.1075,-0.1117,-0.1132,-0.1178,-0.1215,-0.1204,-0.119,-0.1191,-0.1262,-0.128,-0.1261,-0.1033,0,0,0,0,-0.108,-0.1089,-0.1103,-0.1129,-0.1149,-0.1189,-0.1212,-0.1219,-0.1237,-0.1213,-0.1234,-0.1242,-0.1229,-0.1114,-0.1204,-0.1204,-0.1204,-0.1204,-0.1204,-0.1092,-0.1106,-0.1141,-0.1162,-0.1188,-0.1221,-0.125,-0.1253,-0.124,-0.1249,-0.1268,-0.1262,-0.1141,-0.1244,-0.1245,-0.1245,-0.1245,-0.1245,-0.1245,-0.1117,-0.1124,-0.1161,-0.1205,-0.1232,-0.1263,-0.1289,-0.1296,-0.1297,-0.1289,-0.1273,-0.1155,-0.125,-0.1249,-0.1248,-0.1248,-0.1247,-0.1247,-0.1247,-0.1104,-0.1109,-0.1156,-0.1205,-0.1257,-0.1291,-0.1299,-0.1334,-0.1334,-0.1339,-0.1169,-0.1279,-0.1297,-0.1316,-0.1316,-0.1316,-0.1316,-0.1316,-0.1316,-0.1056,-0.1102,-0.1123,-0.1193,-0.122,-0.1258,-0.1305,-0.1285,-0.13,-0.1194,-0.1337,-0.1285,-0.1283,-0.1298,-0.1316,-0.1316,-0.1316,-0.1316,-0.1316,-0.0994,-0.1021,-0.1043,-0.1072,-0.1125,-0.1139,-0.1222,-0.114,-0.1101,-0.1027,-0.1099,-0.111,-0.1063,-0.1066,-0.1073,-0.1025,-0.1023,-0.102,0,-0.0924,-0.0946,-0.0943,-0.0957,-0.096,-0.1048,-0.094,-0.0938,-0.0946,-0.092,-0.1102,-0.1188,-0.1193,-0.1146,-0.1144,-0.1153,0,0,0,-0.0849,-0.0866,-0.0829,-0.0871,-0.0872,-0.0849,-0.09,-0.0838,-0.0972,-0.0852,-0.096,-0.0976,-0.1168,-0.1317,-0.127,-0.1267,-0.1289,0,0]},{"header":{"parameterUnit":"m.s-1","parameterCategory":2,"la1":30.2992,"la2":30.254,"lo1":-89.0895,"lo2":-89.0443,"dy":0.0025,"dx":0.0025,"nx":19,"ny":19,"refTime":"2026-04-10T09:00:00:Z","depth":"4","parameterNumber":3,"parameterNumberName":"V-component_of_CURRENTS"},"data":[0,0,0,-0.0406,-0.0405,-0.0394,-0.0393,-0.0315,-0.0314,0,0,0,0,0,0,0,0,0,0,0,-0.0414,-0.0414,-0.0406,-0.0405,-0.0394,-0.0393,-0.0315,-0.0314,0,0,0,0,0,0,0,0,0,0,0,-0.0414,-0.0414,-0.0414,-0.0405,-0.0394,-0.0393,-0.0315,-0.0338,0,0,0,0,0,0,0,0,0,0,-0.0357,-0.0378,-0.0414,-0.0414,-0.0405,-0.0394,-0.0393,-0.034,-0.0337,-0.0304,0,-0.0312,0,-0.0311,-0.0308,-0.0308,0,0,0,-0.0398,-0.0381,-0.0376,-0.0414,-0.0405,-0.0394,-0.0397,-0.0339,-0.0335,-0.03,-0.0311,-0.0309,-0.0309,-0.0307,-0.0307,-0.0183,-0.0182,0,0,-0.0399,-0.0408,-0.0379,-0.0374,-0.0414,-0.0397,-0.0397,-0.0337,-0.0337,-0.0311,-0.0307,-0.0308,-0.0307,-0.0306,-0.0183,-0.0182,0,0,0,-0.0406,-0.0408,-0.0406,-0.0377,-0.038,-0.0397,-0.0396,-0.034,-0.0339,-0.0306,-0.0307,-0.0306,-0.0305,-0.0184,-0.0183,-0.0188,0,0,0,-0.0406,-0.0413,-0.0407,-0.0411,-0.0382,-0.0369,-0.0401,-0.0344,-0.0337,-0.0308,-0.0306,-0.0304,-0.0185,-0.0183,-0.0189,-0.0205,0,0,0,-0.0412,-0.0413,-0.0415,-0.0412,-0.0409,-0.037,-0.0366,-0.0342,-0.0337,-0.0307,-0.0304,-0.0185,-0.0184,-0.019,-0.0206,-0.0192,0,0,0,-0.0415,-0.0414,-0.0416,-0.041,-0.041,-0.0378,-0.0367,-0.0344,-0.0321,-0.0306,-0.0185,-0.0183,-0.0191,-0.0207,-0.0192,-0.0224,0,0,0,-0.0411,-0.0414,-0.0408,-0.0409,-0.0385,-0.0379,-0.0331,-0.0304,-0.0279,-0.02,-0.0198,-0.0189,-0.0206,-0.0192,-0.0127,0,0,0,0,-0.0403,-0.0403,-0.0395,-0.0386,-0.0364,-0.0332,-0.0305,-0.0272,-0.021,-0.0259,-0.0154,-0.0164,-0.0156,-0.0174,-0.0175,-0.0175,-0.0175,-0.0176,-0.0176,-0.0414,-0.0398,-0.0386,-0.0364,-0.034,-0.0291,-0.0254,-0.0197,-0.0182,-0.0146,-0.0142,-0.01,-0.0116,-0.0104,-0.0104,-0.0104,-0.0104,-0.0104,-0.0104,-0.0416,-0.0412,-0.0386,-0.0373,-0.0331,-0.0292,-0.0198,-0.0175,-0.0101,-0.0097,-0.0088,-0.0145,-0.0104,-0.0104,-0.0104,-0.0104,-0.0104,-0.0104,-0.0104,-0.0437,-0.0431,-0.0429,-0.0408,-0.0366,-0.0306,-0.0247,-0.0181,-0.0115,-0.0096,-0.0111,-0.0098,-0.0128,-0.0093,-0.0093,-0.0093,-0.0093,-0.0093,-0.0093,-0.0465,-0.0456,-0.0469,-0.0442,-0.0431,-0.0386,-0.0283,-0.0231,-0.0159,-0.0119,-0.0104,-0.0097,-0.0097,-0.0126,-0.0093,-0.0093,-0.0093,-0.0093,-0.0093,-0.0485,-0.05,-0.0509,-0.0514,-0.0481,-0.0439,-0.0358,-0.0243,-0.0189,-0.0142,-0.0118,-0.0117,-0.0121,-0.0121,-0.0151,-0.0125,-0.0125,-0.0126,0,-0.0511,-0.0514,-0.0541,-0.0548,-0.0522,-0.0462,-0.0378,-0.03,-0.0207,-0.0208,-0.0199,-0.0178,-0.0175,-0.0186,-0.0186,-0.0225,0,0,0,-0.0527,-0.053,-0.0556,-0.0564,-0.0537,-0.0424,-0.0348,-0.0308,-0.0227,-0.017,-0.0133,-0.0131,-0.014,-0.0092,-0.0096,-0.0096,-0.0143,0,0]}]]